カタログに戻る

STARLINK-11445

運用中通信VLEO
NORAD 62414·PAYLOAD·🇺🇸 United States

打ち上げ Dec 23, 2024 から Cape Canaveral Space Force Station

Loading…

次のパス (今後24時間)

TLE

最新Source: CelesTrak SupGP

元期: Sep 14, 2026, 20:41 UTC

1 62414C 24249F   26257.86229167 -.00053439  00000+0 -41516-3 0  2573
2 62414  43.0004 107.2484 0001627 262.7537 114.7486 15.70859008    19

AllMySatでSTARLINK-11445をリアルタイム追跡

Download on the App Store